Tracking 28081 objects as of 26-Sep-2023
HD Live streaming from Space Station
objects crossing your sky now

STARLINK-5230

Track STARLINK-5230 now!
10-day predictions
STARLINK-5230 is classified as:


NORAD ID: 55394
Int'l Code: 2023-014D
Perigee: 577.2 km
Apogee: 581.1 km
Inclination: 70.0 °
Period: 96.1 minutes
Semi major axis: 6950 km
RCS: Unknown
Launch date: January 31, 2023
Source: United States (US)
Launch site: AIR FORCE WESTERN TEST RANGE (AFWTR)
Your satellite tracking list
Your tracking list is empty




NASA's NSSDC Master Catalog

Two Line Element Set (TLE):
1 55394U 23014D   23269.12851679  .00001992  00000-0  17459-3 0  9997
2 55394  70.0013 162.3011 0002765 268.9419  91.1423 14.98343882 36977
Source of the keplerian elements: AFSPC